Regional Weather Roundup
Issued by NWS

Home | Current Version | Previous Version | Graphics & Text | Print | Product List | Glossary On
Versions: 1 2 3 4 5 6 7 8 9 10 11 12 13 14 15 16 17 18 19 20 21 22 23 24 25 26 27 28 29 30 31 32 33 34 35 36 37 38 39 40 41 42 43 44 45 46 47 48 49 50
000
ASUS43 KMPX 210410
RWRMN
WEATHER ROUNDUP FOR MINNESOTA
NATIONAL WEATHER SERVICE TWIN CITIES/CHANHASSEN MN
1100 PM CDT MON OCT 20 2014


NOTE: "FAIR" INDICATES FEW OR NO CLOUDS BELOW 12,000 FEET WITH NO
SIGNIFICANT WEATHER AND/OR OBSTRUCTIONS TO VISIBILITY. N/A MEANS
CURRENT SKY AND/OR WEATHER CONDITIONS ARE NOT AVAILABLE.

MNZ060>063-068>070-210500-
   Twin Cities Metro

CITY           SKY/WX    TMP DP  RH WIND       PRES   REMARKS
TWIN CITIES    CLEAR     48  39  71 NE5       30.09R
ST PAUL        CLEAR     47  39  74 CALM      30.10R
CRYSTAL        CLEAR     43  37  79 CALM      30.08R
BLAINE         CLEAR     43  39  87 CALM      30.09R
LAKEVILLE      CLEAR     43  39  87 CALM      30.08R
EDEN PRAIRIE   CLEAR     49  40  71 NE7       30.07R
SOUTH ST PAUL  CLEAR     48  39  71 CALM      30.09R
LAKE ELMO      FAIR      41  37  87 CALM      30.09S
$$
MNZ001>005-007-008-013>017-022>024-027-028-210500-
   Northwest Minnesota

CITY           SKY/WX    TMP DP  RH WIND       PRES   REMARKS
BEMIDJI        CLEAR     38  36  92 E3        30.10R
HALLOCK        CLEAR     45  37  76 MISG      30.05S
ROSEAU         CLEAR     39  34  81 SE9       30.09R
WARROAD        CLEAR     41  37  87 SE10      30.10S
THIEF RVR FALL CLEAR     39  37  93 SE7       30.08R
CROOKSTON      CLEAR     45  37  76 SE12      30.07R
FOSSTON        CLEAR     36  30  80 E5        30.08S
DETROIT LAKES  CLEAR     45  37  76 SE7       30.08R
MOORHEAD       CLEAR     46  39  76 E6        30.06R
PARK RAPIDS    CLEAR     41  38  89 E5        30.09R
MAHNOMEN       FAIR      42  36  81 E6        30.07R
$$
MNZ006-009>011-018-025>026-210500-
   North Central Minnesota

CITY           SKY/WX    TMP DP  RH WIND       PRES   REMARKS
BAUDETTE       CLEAR     35  32  88 E7        30.11S WCI  29
FLAG ISLAND    CLEAR     45  37  76 SE6       30.10R
INTL FALLS     CLOUDY    43  36  76 E8        30.13R
WASKISH        CLEAR     30  28  93 CALM      30.11S
BIG FORK       CLEAR     36  34  93 CALM      30.12S
LONGVILLE      CLEAR     34  32  93 CALM      30.10S
GRAND RAPIDS   PTCLDY    36  32  87 CALM      30.11R
CRANE LAKE     CLOUDY    41  36  81 CALM      30.15S
ORR            CLOUDY    43  34  70 CALM      30.10S
COOK           CLOUDY    43  36  75 NE3       30.12S
WALKER         FAIR      42  38  84 E5        30.10S
$$
MNZ012-019>021-037-210500-
   Northeast Minnesota

CITY           SKY/WX    TMP DP  RH WIND       PRES   REMARKS
DULUTH         CLOUDY    46  35  65 N6        30.10S
ELY            CLOUDY    41  34  75 E6        30.12S
HIBBING        CLOUDY    45  35  68 E3        30.11R
EVELETH        CLOUDY    43  34  70 NE5       30.12S
DULUTH HARBOR  CLOUDY    50  43  76 NE8       30.12R
TWO HARBORS    CLOUDY    48  27  43 NE3       30.10R
SILVER BAY     PTCLDY    46  36  66 N6        30.11R
GRAND MARAIS     N/A     41  32  70 N3        30.15R
G MARAIS ARPRT CLOUDY    36  28  75 N5        30.13R
$$
MNZ029>031-032-039>041-046>048-054>057-064-210500-
   West Central Minnesota

CITY           SKY/WX    TMP DP  RH WIND       PRES   REMARKS
FERGUS FALLS   CLEAR     45  36  70 E3        30.07R
WHEATON        CLEAR     39  34  81 CALM      30.08R
MORRIS         CLEAR     41  36  81 CALM      30.06R
ALEXANDRIA     CLEAR     46  39  76 E7        30.08R
ELBOW LAKE     FAIR      49  39  69 E5        30.05S
WADENA         CLEAR     43  36  75 E7        30.08R
GLENWOOD       CLEAR     43  37  81 E7        30.07S
APPLETON       CLEAR     41  36  81 CALM      30.06R
BENSON         CLEAR     39  36  87 CALM      30.06R
ORTONVILLE     CLEAR     46  37  71 CALM      30.06S
MADISON        CLEAR     45  36  70 W3        30.06S
WILLMAR        FAIR      46  37  71 E9        30.07S
$$
MNZ033>034-036-042>043-049>051-058-059-210500-
   Central Minnesota

CITY           SKY/WX    TMP DP  RH WIND       PRES   REMARKS
ST CLOUD       CLEAR     46  38  73 CALM      30.09R
SAUK CENTRE    FAIR      45  38  78 E9        30.08S
PAYNESVILLE    CLEAR     41  37  86 NE5       30.09R
AITKIN         CLEAR     34  28  80 CALM      30.09S
PINE RIVER     CLEAR     36  34  93 CALM      30.13S
BRAINERD       CLEAR     38  38 100 NE3       30.10R FOG
STAPLES        CLEAR     41  37  87 E3        30.09S
LONG PRAIRIE   FAIR      41  36  81 CALM      30.09R
LITTLE FALLS   CLEAR     41  36  81 CALM      30.10R
LITCHFIELD     CLEAR     46  43  87 E8        30.08S
BUFFALO        CLEAR     43  37  78 CALM      30.09S
MAPLE LAKE     CLEAR     42  39  87 NE6       30.09S
$$
MNZ037-044-045-052-053-210500-
   East Central Minnesota

CITY           SKY/WX    TMP DP  RH WIND       PRES   REMARKS
PRINCETON      CLEAR     39  36  87 CALM      30.10R
MORA           CLEAR     36  34  93 CALM      30.11R
CAMBRIDGE      CLEAR     39  32  75 CALM      30.08R
RUSH CITY      CLEAR     40  36  84 NE3       30.10R
MOOSE LAKE     CLOUDY    45  36  70 CALM      30.09R
HINCKLEY       FAIR      37  36  93 CALM      30.10R
CLOQUET        CLOUDY    46  36  66 NE5       30.11R
MCGREGOR       PTCLDY    36  32  87 CALM      30.11R
$$
MNZ071>073-080-081-089-090-097-098-210500-
   Southwest Minnesota

CITY           SKY/WX    TMP DP  RH WIND       PRES   REMARKS
MONTEVIDEO     CLEAR     45  36  70 CALM      30.07R
GRANITE FALLS  CLEAR     40  34  77 CALM      30.07R
CANBY          CLEAR     40  36  87 CALM      30.07S
MARSHALL       CLEAR     39  30  70 W5        30.06R
REDWOOD FALLS  CLEAR     52  39  61 E3        30.06R
OLIVIA         CLEAR     46  37  71 NE3       30.06R
PIPESTONE      CLEAR     48  36  61 E3        30.07R
WINDOM         CLEAR     45  36  70 CALM      30.07R
WORTHINGTON    CLEAR     39  34  81 NW3       30.08S
JACKSON        CLEAR     43  36  75 CALM      30.07R
TRACY          CLEAR     46  37  72 W3        30.07R
SLAYTON        CLEAR     41  35  79 CALM      30.08R
$$
MNZ065>067-074>077-082>085-091>093-210500-
   South Central Minnesota

CITY           SKY/WX    TMP DP  RH WIND       PRES   REMARKS
MANKATO        FAIR      48  36  61 E8        30.06R
NEW ULM        CLEAR     52  39  62 E3        30.06R
ST JAMES       CLEAR     45  37  76 CALM      30.07R
FAIRMONT       CLEAR     45  32  61 N3        30.06R
GLENCOE        CLEAR     46  40  80 CALM      30.07R
FARIBAULT      CLEAR     37  36  93 N3        30.07R
OWATONNA       CLEAR     46  37  71 E8        30.07R
WASECA         CLEAR     45  34  65 NE6       30.08R
ALBERT LEA     CLEAR     46  39  76 CALM      30.06R
$$
MNZ078>079-086>088-094>096-210500-
   Southeast Minnesota

CITY           SKY/WX    TMP DP  RH WIND       PRES   REMARKS
ROCHESTER      CLEAR     44  38  79 NE5       30.08R
RED WING       CLEAR     43  37  81 CALM      30.07S
STANTON        CLEAR     45  39  78 CALM      30.07R
DODGE CENTER   CLEAR     43  39  87 E6        30.07R
WINONA         CLEAR     45  41  87 CALM      30.07S
AUSTIN         CLEAR     45  39  81 CALM      30.06R
PRESTON        CLEAR     45  39  78 CALM      30.07R
$$
ABBREVIATIONS USED IN REMARKS
   TC - TEMPERATURES IN CELSIUS
  WCI - WIND CHILL INDEX
   HX - HEAT INDEX
  VSB - VISIBILITY
$$



USA.gov is the U.S. government's official web portal to all federal, state and local government web resources and services.